World > North America > United States > New Jersey

Port Republic, New Jersey Regional Weather

Lat: 39.52N, Lon: 74.49W
Wx Zone: NJZ022
Warning FLW WEATHER ALERT - EXCESSIVE HEAT WARNING (More Info. Click Here) Warning
Feedback

Port Republic, NJ Regional Weather

Expires:201907210200;;379584
ASUS41 KOKX 210106
RWROKX

Regional Weather Roundup
National Weather Service New York NY
900 PM EDT SAT JUL 20 2019

Note: "FAIR" indicates few or no clouds below 12,000 feet with no
significant weather and/or obstructions to visibility.


NJZ001-105-106-008-010-013-015-019>022-104-210200-
New Jersey
  
CITY           SKY/WX    TMP DP  RH WIND       PRES   REMARKS
Newark/Liberty FAIR      92  73  53 SW12      29.80S HX 100           
Teterboro      FAIR      91  73  55 W8        29.79S HX  99           
Caldwell       FAIR      91  75  59 CALM      29.80F HX 101           
Somerville     FAIR      86  75  69 CALM      29.80F HX  95           
Linden         FAIR      91  72  52 W9        29.81S HX  98           
Perth Amboy      N/A     90 N/A N/A W9          N/A                   
Sussex         FAIR      76  72  87 CALM      29.85S                  
Andover          N/A     80  74  81 CALM      29.85F                  
Trenton        FAIR      89  75  63 SW3       29.83S HX  99           
Millville      FAIR      86  79  79 CALM      29.85S HX  99           
Atlantic City  FAIR      91  76  61 SW6       29.85R HX 103           
Wrightstown    MOCLDY    86  77  72 SW6       29.82  HX  97           
Toms River     FAIR      86  81  85 SW3       29.84S HX 102           
Belmar         FAIR      88  76  67 SW7       29.84S HX  99           
$$
 

SKY/WX - Weather  TMP - Temperature  DP - Dew Point  RH - Relative Humidity
WIND - Wind Direction/Speed PRES - Barometric Pressure VSB - Visibility
WCI - Wind Chill Index E13G22 Wind - East Wind 13 mph/Gusts of 22 mph